Simultaneous Nadir Overpasses (SNOs) Predictions

Prediction of SNOs between LANDSAT-8 and METOP-B Satellite Orbit:

Table of predicted SNOs for the next 14.0 days since TLE Epoch: 6/22/2018
Index Date (LANDSAT-8) Time (LANDSAT-8) Lat,Lon (LANDSAT-8) SZA (LANDSAT-8 ) Date (METOP-B) Time (METOP-B) Lat,Lon (METOP-B) SZA (METOP-B ) Distance(km) Time Diff (sec)
1 06/25/2018 09:27:45 81.22, 79.54 60.08 06/25/2018 09:27:12 81.21, 79.37 60.05 2.93 33
2 06/25/2018 10:17:11 -81.24,-112.49 119.87 06/25/2018 10:17:51 -81.23,-112.61 119.87 2.17 40
3 06/28/2018 05:02:02 81.22, 145.93 60.16 06/28/2018 05:01:32 81.21, 145.81 60.14 1.96 30
4 06/28/2018 05:51:28 -81.24, -46.07 119.79 06/28/2018 05:52:11 -81.23, -46.17 119.78 1.61 43
5 07/01/2018 00:36:19 81.21,-147.71 60.30 07/01/2018 00:35:52 81.22,-147.75 60.28 0.84 27
6 07/01/2018 01:25:45 -81.24, 20.31 119.65 07/01/2018 01:26:31 -81.24, 20.27 119.63 0.76 46
7 07/03/2018 20:10:34 81.23, -81.00 60.53 07/03/2018 20:10:10 81.23, -80.95 60.53 0.87 24
8 07/03/2018 21:00:01 -81.23, 86.67 119.46 07/03/2018 21:00:50 -81.24, 86.70 119.44 0.66 49
9 07/06/2018 15:44:51 81.22, -14.69 60.76 07/06/2018 15:44:30 81.23, -14.54 60.78 2.63 21




NCC Satellite Simultaneous Nadir Overpasses (SNOs) Prediction Service
